Main page
METAR-TAF:

METAR-TAF

Airports :

Teruel, Spain

Teruel Airport

latitude: 40-24-43N, longitude: 01-13-03W, elevation: 1030 m

Current weather observation

The report was made 20 minutes ago, at 11:30 UTC
Wind 2 kt from variable directions
Temperature 12°C
Humidity 22%
Pressure 1025 hPa
Visibility 10 km or more

METAR: LETL 201130Z AUTO VRB02KT 9999 // NSC 12/M09 Q1025

Time: 12:50 (11:50 UTC)


TAF: missing

Weather observations and forecasts of more than 4000 airports (METAR and TAF reports).

The available stations are represented by yellow and red dots on the map.

Hover mouse over dot to see the name of the station.

Then click to see weather observations and forecasts.

To change the map : click on the green buttons with a black cross to zoom in, on the green button with a dash to zoom out, or on the green arrows for adjacent maps.


METAR-TAF: